• In Hungary
  • List of Countries
  • For 7 days
  • Water Temperature
  • Satellite Maps
  • Weather Map
  • News
  • Weather Widgets
  • user-avatar
    Login

    Hourly Weather Ali Sabieh

    Today, 23 September, Sunday

    Time Temperature Precipitation Wind Pressure Humidity
    00:00 +28°C° 0 mm 3 mps 697 mmHg 65%
    01:00 +28°C° 0 mm 3 mps 697 mmHg 66%
    02:00 +28°C° 0 mm 2 mps 696 mmHg 67%
    03:00 +28°C° 0 mm 2 mps 696 mmHg 69%
    04:00 +27°C° 0 mm 2 mps 697 mmHg 69%
    05:00 +27°C° 0 mm 2 mps 697 mmHg 70%
    06:00 +27°C° 0 mm 1 mps 697 mmHg 70%
    07:00 +28°C° 0 mm 2 mps 697 mmHg 60%
    08:00 +30°C° 0 mm 2 mps 698 mmHg 51%
    09:00 +31°C° 0 mm 2 mps 698 mmHg 40%
    10:00 +34°C° 0 mm 2 mps 698 mmHg 35%
    11:00 +35°C° 0 mm 3 mps 698 mmHg 30%
    12:00 +37°C° 0 mm 4 mps 698 mmHg 26%
    13:00 +37°C° 0 mm 5 mps 698 mmHg 26%
    14:00 +37°C° 0 mm 5 mps 697 mmHg 27%
    15:00 +37°C° 0 mm 5 mps 696 mmHg 26%
    16:00 +36°C° 0 mm 5 mps 696 mmHg 28%
    17:00 +36°C° 0 mm 4 mps 696 mmHg 30%
    18:00 +35°C° 0 mm 4 mps 696 mmHg 33%
    19:00 +34°C° 0 mm 4 mps 696 mmHg 37%
    20:00 +33°C° 0 mm 3 mps 696 mmHg 42%
    21:00 +31°C° 0 mm 3 mps 696 mmHg 47%
    22:00 +30°C° 0 mm 3 mps 696 mmHg 50%
    23:00 +29°C° 0 mm 3 mps 696 mmHg 53%

    Tomorrow, 24 September, Monday

    Time Temperature Precipitation Wind Pressure Humidity
    00:00 +29°C° 0 mm 3 mps 696 mmHg 56%
    01:00 +28°C° 0 mm 2 mps 696 mmHg 57%
    02:00 +28°C° 0 mm 2 mps 696 mmHg 58%
    03:00 +28°C° 0 mm 2 mps 696 mmHg 60%
    04:00 +27°C° 0 mm 2 mps 696 mmHg 60%
    05:00 +27°C° 0 mm 2 mps 696 mmHg 61%
    06:00 +27°C° 0 mm 2 mps 696 mmHg 61%
    07:00 +28°C° 0 mm 2 mps 697 mmHg 54%
    08:00 +29°C° 0 mm 2 mps 697 mmHg 47%
    09:00 +31°C° 0 mm 2 mps 698 mmHg 40%
    10:00 +33°C° 0 mm 3 mps 698 mmHg 35%
    11:00 +35°C° 0 mm 3 mps 698 mmHg 30%
    12:00 +36°C° 0 mm 4 mps 698 mmHg 24%
    13:00 +36°C° 0 mm 4 mps 697 mmHg 25%
    14:00 +37°C° 0 mm 5 mps 696 mmHg 25%
    15:00 +37°C° 0 mm 5 mps 696 mmHg 25%
    16:00 +36°C° 0 mm 5 mps 696 mmHg 27%
    17:00 +35°C° 0 mm 5 mps 695 mmHg 29%
    18:00 +35°C° 0 mm 4 mps 695 mmHg 31%
    19:00 +34°C° 0 mm 4 mps 696 mmHg 33%
    20:00 +33°C° 0 mm 4 mps 696 mmHg 36%
    21:00 +31°C° 0 mm 3 mps 696 mmHg 38%
    22:00 +31°C° 0 mm 3 mps 696 mmHg 41%
    23:00 +30°C° 0 mm 3 mps 696 mmHg 43%

    Day after tomorrow, 25 September, Tuesday

    Time Temperature Precipitation Wind Pressure Humidity
    00:00 +29°C° 0 mm 3 mps 696 mmHg 46%
    01:00 +29°C° 0 mm 3 mps 696 mmHg 50%
    02:00 +28°C° 0 mm 3 mps 696 mmHg 55%
    03:00 +27°C° 0 mm 4 mps 695 mmHg 59%
    04:00 +27°C° 0 mm 4 mps 696 mmHg 62%
    05:00 +27°C° 0 mm 3 mps 696 mmHg 65%
    06:00 +27°C° 0 mm 3 mps 696 mmHg 67%
    07:00 +28°C° 0 mm 3 mps 697 mmHg 62%
    08:00 +29°C° 0 mm 4 mps 697 mmHg 56%
    09:00 +30°C° 0 mm 4 mps 698 mmHg 50%
    10:00 +32°C° 0 mm 4 mps 698 mmHg 45%
    11:00 +33°C° 0 mm 4 mps 698 mmHg 39%
    12:00 +35°C° 0 mm 4 mps 698 mmHg 34%
    13:00 +35°C° 0 mm 4 mps 697 mmHg 33%
    14:00 +36°C° 0 mm 4 mps 696 mmHg 32%
    15:00 +36°C° 0 mm 3 mps 695 mmHg 32%
    16:00 +36°C° 0 mm 3 mps 695 mmHg 34%
    17:00 +35°C° 0 mm 3 mps 695 mmHg 35%
    18:00 +35°C° 0 mm 3 mps 695 mmHg 37%
    19:00 +34°C° 0 mm 3 mps 695 mmHg 41%
    20:00 +33°C° 0 mm 3 mps 696 mmHg 45%
    21:00 +31°C° 0 mm 3 mps 696 mmHg 50%
    22:00 +31°C° 0 mm 3 mps 696 mmHg 53%
    23:00 +30°C° 0 mm 3 mps 696 mmHg 57%

    26 September, Wednesday

    Time Temperature Precipitation Wind Pressure Humidity
    00:00 +29°C° 0 mm 3 mps 696 mmHg 61%
    01:00 +29°C° 0 mm 3 mps 696 mmHg 63%
    02:00 +28°C° 0 mm 3 mps 695 mmHg 65%
    03:00 +28°C° 0 mm 3 mps 695 mmHg 67%
    04:00 +27°C° 0 mm 3 mps 695 mmHg 69%
    05:00 +27°C° 0 mm 3 mps 695 mmHg 71%
    06:00 +27°C° 0 mm 3 mps 696 mmHg 73%
    07:00 +28°C° 0 mm 3 mps 696 mmHg 68%
    08:00 +29°C° 0 mm 3 mps 697 mmHg 63%
    09:00 +29°C° 0 mm 3 mps 698 mmHg 58%
    10:00 +31°C° 0 mm 3 mps 697 mmHg 50%
    11:00 +33°C° 0 mm 3 mps 697 mmHg 43%
    12:00 +35°C° 0 mm 2 mps 697 mmHg 36%
    13:00 +35°C° 0 mm 3 mps 696 mmHg 35%
    14:00 +36°C° 0 mm 3 mps 696 mmHg 33%
    15:00 +37°C° 0 mm 3 mps 695 mmHg 32%
    16:00 +36°C° 0 mm 3 mps 695 mmHg 35%
    17:00 +35°C° 0 mm 3 mps 695 mmHg 38%
    18:00 +35°C° 0 mm 4 mps 695 mmHg 41%
    19:00 +34°C° 0 mm 3 mps 695 mmHg 44%
    20:00 +34°C° 0 mm 3 mps 696 mmHg 46%
    21:00 +33°C° 0 mm 3 mps 696 mmHg 48%
    22:00 +31°C° 0 mm 3 mps 696 mmHg 52%
    23:00 +30°C° 0 mm 3 mps 696 mmHg 57%

    27 September, Thursday

    Time Temperature Precipitation Wind Pressure Humidity
    00:00 +29°C° 0 mm 3 mps 696 mmHg 61%
    01:00 +29°C° 0 mm 3 mps 695 mmHg 63%
    02:00 +29°C° 0 mm 2 mps 695 mmHg 65%
    03:00 +28°C° 0 mm 2 mps 695 mmHg 66%
    04:00 +28°C° 0 mm 2 mps 695 mmHg 68%
    05:00 +28°C° 0 mm 2 mps 695 mmHg 69%
    06:00 +27°C° 0 mm 2 mps 696 mmHg 71%
    07:00 +28°C° 0 mm 2 mps 696 mmHg 65%
    08:00 +29°C° 0 mm 3 mps 697 mmHg 59%
    09:00 +30°C° 0 mm 3 mps 698 mmHg 53%
    10:00 +33°C° 0 mm 3 mps 697 mmHg 47%
    11:00 +34°C° 0 mm 3 mps 697 mmHg 40%
    12:00 +36°C° 0 mm 3 mps 697 mmHg 34%
    13:00 +36°C° 0 mm 3 mps 696 mmHg 33%
    14:00 +37°C° 0 mm 3 mps 695 mmHg 31%
    15:00 +37°C° 0 mm 4 mps 695 mmHg 29%
    16:00 +37°C° 0 mm 4 mps 695 mmHg 32%
    17:00 +36°C° 0 mm 4 mps 695 mmHg 35%
    18:00 +35°C° 0 mm 4 mps 695 mmHg 38%
    19:00 +35°C° 0 mm 4 mps 695 mmHg 42%
    20:00 +34°C° 0 mm 4 mps 695 mmHg 45%
    21:00 +33°C° 0 mm 3 mps 696 mmHg 48%
    22:00 +31°C° 0 mm 3 mps 696 mmHg 53%
    23:00 +30°C° 0 mm 3 mps 695 mmHg 58%

    28 September, Friday

    Time Temperature Precipitation Wind Pressure Humidity
    00:00 +29°C° 0 mm 3 mps 695 mmHg 62%
    01:00 +29°C° 0 mm 3 mps 695 mmHg 64%
    02:00 +28°C° 0 mm 3 mps 695 mmHg 67%
    03:00 +28°C° 0 mm 2 mps 694 mmHg 69%
    04:00 +28°C° 0 mm 2 mps 695 mmHg 70%
    05:00 +27°C° 0 mm 2 mps 695 mmHg 72%
    06:00 +27°C° 0 mm 2 mps 696 mmHg 73%
    07:00 +28°C° 0 mm 2 mps 696 mmHg 66%
    08:00 +29°C° 0 mm 2 mps 697 mmHg 59%
    09:00 +31°C° 0 mm 2 mps 697 mmHg 51%
    10:00 +33°C° 0 mm 3 mps 697 mmHg 45%
    11:00 +34°C° 0 mm 3 mps 697 mmHg 38%
    12:00 +36°C° 0 mm 3 mps 696 mmHg 32%
    13:00 +36°C° 0 mm 3 mps 695 mmHg 31%
    14:00 +37°C° 0 mm 4 mps 695 mmHg 30%
    15:00 +37°C° 0 mm 4 mps 694 mmHg 29%
    16:00 +37°C° 0 mm 4 mps 694 mmHg 32%
    17:00 +36°C° 0 mm 4 mps 695 mmHg 36%
    18:00 +35°C° 0 mm 4 mps 695 mmHg 39%
    19:00 +34°C° 0 mm 4 mps 695 mmHg 44%
    20:00 +33°C° 0 mm 4 mps 695 mmHg 49%
    21:00 +32°C° 0 mm 4 mps 695 mmHg 53%
    22:00 +30°C° 0 mm 4 mps 695 mmHg 57%
    23:00 +30°C° 0 mm 4 mps 695 mmHg 61%
    Show more